Wind_Speed
10 10 9 9 10 10 11 11 12 13 13 13 13 14 15 17 18 19 19 20 21 22 23 24 25 27 28 29 27 25 24 23 23 24 24 25 25 24 23 22 20 21
8 7 7 7 8 9 10 11 11 11 11 11 11 12 13 15 17 19 19 20 21 22 24 25 27 28 29 30 29 27 25 24 24 25 26 25 25 25 24 24 23 22
7 6 6 7 8 9 10 11 11 11 11 10 10 10 11 13 15 17 18 20 21 23 24 26 27 27 28 28 28 27 26 26 26 26 26 25 25 25 25 25 25 25
7 6 6 7 8 9 9 9 9 10 10 10 10 11 12 13 14 15 17 19 20 22 23 24 25 25 26 26 26 25 25 25 26 26 25 23 23 25 25 26 27 26
6 6 7 7 8 9 8 7 8 10 11 11 12 12 13 13 13 14 16 18 19 21 22 23 24 24 25 25 25 25 24 24 24 24 24 24 23 24 26 26 27 27
6 6 7 8 9 9 9 9 11 11 12 13 13 14 14 14 14 15 16 18 19 21 22 23 24 25 25 26 25 25 25 24 24 23 24 24 24 24 25 26 27 27
6 6 8 9 10 10 11 12 12 13 14 14 14 14 15 15 15 16 17 19 20 21 23 24 25 26 26 26 26 26 25 25 25 24 24 24 24 24 24 25 26 27
8 8 10 11 11 12 13 14 14 15 15 15 15 15 16 16 16 17 18 19 20 21 22 24 25 26 27 28 28 27 27 26 25 25 25 24 24 24 24 24 24 25
12 12 12 12 13 13 14 15 15 15 15 16 16 17 17 17 17 17 18 19 20 21 23 24 25 26 27 28 28 29 28 28 27 26 25 25 25 25 24 23 23 23
13 13 12 13 13 14 14 15 15 15 16 16 17 17 17 17 18 18 19 20 21 23 24 25 26 27 27 28 28 29 29 30 30 29 28 27 27 26 26 24 24 23
13 13 13 13 14 14 15 15 16 16 17 17 17 17 18 19 19 20 21 22 23 25 25 26 27 28 28 29 29 30 30 30 30 31 31 30 29 28 27 26 25 24
15 15 15 16 16 16 17 17 17 18 18 18 19 20 20 21 22 22 23 24 25 25 26 26 27 28 29 30 31 31 31 31 30 30 31 31 31 30 29 28 26 25
17 18 18 18 18 18 18 18 18 18 19 20 20 21 21 22 23 23 24 25 25 25 26 26 27 28 29 30 31 32 32 32 32 31 31 31 31 31 30 29 28 26
18 18 19 19 19 19 19 18 19 19 20 21 21 22 22 22 23 23 24 24 25 25 26 26 27 29 30 31 31 32 32 33 33 32 32 31 31 31 31 30 28 26
17 18 19 19 19 19 19 19 19 20 20 20 21 22 22 22 22 22 23 23 24 24 25 26 27 28 29 30 31 32 32 33 33 33 33 33 32 31 31 31 30 28
17 18 19 19 19 19 19 19 20 20 20 20 21 21 21 21 21 21 22 23 23 24 25 26 26 27 27 27 28 30 32 33 34 34 35 35 34 33 33 32 32 31
19 19 19 19 20 20 19 19 19 20 20 20 21 21 21 21 21 21 22 23 24 25 25 26 26 26 26 26 27 28 30 32 33 34 35 36 37 36 35 34 33 32
20 20 20 20 20 20 19 19 19 20 20 21 22 22 22 22 22 22 22 23 23 24 24 25 25 26 26 27 27 27 28 30 32 33 35 36 37 38 37 37 36 34
21 21 21 21 21 20 19 19 20 22 23 24 24 23 23 22 22 22 22 22 23 23 24 24 25 25 26 27 28 28 28 29 32 33 34 35 36 37 37 38 38 37
21 21 22 22 21 21 20 21 23 24 24 25 25 24 24 24 23 23 23 23 23 24 24 25 25 25 26 27 28 29 29 30 32 34 34 34 35 36 36 37 38 38
22 22 22 22 22 21 22 22 23 24 25 25 25 25 25 25 24 24 24 24 23 23 24 24 24 24 25 26 28 29 30 31 33 35 35 35 36 36 35 36 37 38
23 22 22 22 21 21 22 22 22 23 24 25 25 25 25 25 25 25 25 24 24 23 24 24 24 24 25 26 28 29 30 32 34 37 38 38 37 36 35 35 37 38
22 23 23 22 21 21 21 21 22 23 24 24 25 25 26 26 27 27 27 26 25 25 25 25 24 24 24 26 28 29 30 33 37 39 40 39 37 36 35 35 36 37
21 22 22 22 20 20 20 20 21 22 23 24 25 26 27 27 27 28 28 28 28 27 26 26 25 24 24 26 28 29 32 35 39 41 42 42 39 37 36 36 36 36
19 20 21 21 20 19 19 19 20 21 22 23 24 25 26 27 28 28 29 30 30 29 28 27 26 25 24 25 27 30 32 35 38 41 44 44 41 38 37 36 36 36
17 18 19 19 19 19 18 18 19 19 20 21 23 24 25 26 28 28 29 30 30 30 30 29 28 26 24 25 27 29 31 34 37 41 44 43 40 38 38 37 37 37
Wind_Direction
334 331 329 327 325 325 326 325 324 322 323 327 329 331 328 323 325 327 326 325 325 324 322 319 317 316 316 315 313 310 306 302 300 300 299 300 301 302 305 307 307 304
356 355 353 350 350 349 349 350 348 345 346 347 346 343 337 332 330 330 329 328 325 323 320 318 318 318 317 317 317 315 312 308 306 306 307 308 308 307 307 308 306 305
20 24 21 15 13 12 10 9 5 360 359 355 347 342 338 333 332 332 330 327 325 324 323 324 326 327 326 325 324 321 317 313 312 311 311 313 314 314 313 312 308 307
40 41 34 27 26 24 19 13 8 7 7 2 355 350 345 338 335 333 330 328 329 331 332 334 335 337 338 338 338 334 327 319 314 312 313 314 315 315 314 313 311 310
48 44 37 34 33 30 22 16 16 16 13 9 5 359 353 348 343 338 334 333 335 337 339 341 341 343 344 343 344 342 338 331 322 315 312 312 313 313 313 313 312 313
53 44 41 38 36 30 22 22 21 17 13 10 7 2 359 357 350 344 341 339 341 342 343 343 343 344 344 344 344 344 343 340 334 326 318 312 311 311 312 313 314 315
52 39 36 34 33 28 24 24 22 17 15 12 7 4 1 359 354 350 349 347 347 346 346 347 347 347 347 347 348 347 346 343 340 336 330 322 315 312 312 314 316 318
56 48 44 42 42 39 35 33 30 27 26 21 17 16 12 8 4 1 358 355 353 353 353 353 352 352 352 352 351 350 349 347 344 340 337 332 326 319 316 315 317 320
66 60 56 51 47 44 40 37 35 34 32 29 27 25 22 17 14 10 6 2 359 358 357 357 356 356 356 355 354 353 352 351 349 346 343 339 334 327 321 318 318 320
67 61 54 48 44 42 40 39 39 38 36 33 31 27 24 21 17 13 10 6 4 2 0 359 359 358 357 357 357 356 355 353 351 349 348 345 340 335 330 324 320 320
64 58 52 49 48 46 47 46 44 42 40 37 34 30 28 25 22 19 16 13 10 7 4 2 1 360 359 360 360 359 358 355 352 350 349 348 346 343 339 333 327 323
62 60 59 59 59 57 56 52 48 44 42 40 38 36 33 30 27 24 21 19 16 12 9 6 4 2 2 3 2 2 0 358 355 352 349 349 349 348 345 341 336 329
64 65 66 67 66 64 60 55 51 47 45 43 40 38 36 33 30 26 23 20 18 15 13 10 7 4 4 5 5 4 3 0 358 355 351 349 347 347 347 345 342 337
68 69 70 69 68 65 60 56 53 49 46 43 39 36 34 32 30 27 24 21 19 16 14 11 8 7 7 6 5 5 5 2 0 357 354 350 347 345 345 344 344 341
74 73 71 68 65 62 58 54 51 47 45 42 39 36 33 31 29 27 24 22 20 17 15 12 10 10 11 8 5 5 4 3 2 360 357 354 349 345 343 341 341 341
78 74 70 66 62 58 55 51 49 46 43 40 37 35 32 30 28 26 24 22 20 17 16 14 12 13 13 9 5 4 3 2 2 1 0 359 355 351 346 342 340 339
79 74 70 66 62 58 54 50 47 45 42 40 37 34 31 29 27 25 24 21 19 16 14 13 12 12 11 8 6 5 3 2 1 1 1 1 359 357 353 348 344 340
78 74 71 67 64 60 56 52 48 45 43 39 36 33 31 28 26 24 23 21 18 15 13 11 10 9 9 7 6 5 3 2 2 1 1 0 360 359 356 353 350 345
78 75 72 69 66 62 58 53 47 44 41 38 35 33 30 28 27 24 22 20 17 15 12 10 9 7 6 7 6 5 3 3 2 1 1 0 360 358 357 356 354 350
77 74 71 68 65 60 55 51 46 42 39 37 34 32 30 29 27 25 23 21 18 15 11 9 7 4 3 4 4 4 3 3 3 2 2 1 1 359 358 357 355 353
74 71 68 64 61 57 53 50 46 43 40 37 34 32 30 29 27 26 25 23 20 17 12 10 7 3 2 3 2 1 1 1 2 2 2 1 0 360 360 359 357 356
71 67 65 61 58 55 52 50 46 43 40 37 35 34 32 30 29 28 27 25 23 19 15 11 7 4 3 2 359 358 358 359 0 0 359 360 0 0 1 1 360 358
69 64 61 59 56 53 51 49 45 42 39 37 35 35 34 32 31 30 30 29 26 21 18 14 9 6 5 2 359 360 0 0 1 0 359 0 2 2 2 2 1 359
68 63 59 57 54 52 51 48 44 41 38 37 35 35 35 33 32 32 32 32 29 25 21 17 11 8 7 6 5 6 6 4 2 1 1 3 3 3 3 2 1 360
68 63 59 56 53 50 49 47 43 40 37 36 35 35 36 35 33 33 33 33 32 29 25 22 17 13 10 10 11 10 9 7 4 2 3 4 4 3 3 2 1 359
69 63 59 56 52 49 47 45 43 40 36 34 35 36 37 36 34 34 33 33 32 30 27 24 21 18 15 15 15 13 10 8 6 4 4 4 4 3 3 3 2 1
Height
1540 1540 1540 1540 1539 1539 1539 1539 1539 1539 1539 1539 1539 1538 1538 1536 1536 1535 1535 1534 1532 1531 1530 1529 1527 1526 1524 1523 1522 1521 1519 1518 1517 1516 1515 1515 1514 1513 1512 1511 1511 1510
1541 1541 1540 1540 1540 1540 1540 1539 1539 1539 1539 1539 1539 1539 1538 1537 1536 1535 1534 1533 1532 1531 1529 1528 1526 1524 1523 1521 1520 1519 1518 1516 1515 1514 1513 1513 1511 1510 1509 1508 1507 1506
1542 1542 1542 1541 1541 1541 1541 1540 1540 1540 1539 1539 1539 1539 1538 1537 1536 1536 1535 1533 1532 1531 1529 1527 1525 1524 1522 1520 1519 1518 1516 1515 1513 1513 1512 1511 1509 1508 1506 1505 1504 1503
1543 1543 1543 1543 1542 1542 1542 1541 1541 1540 1540 1540 1539 1539 1538 1538 1537 1536 1535 1534 1532 1531 1529 1527 1525 1523 1521 1520 1518 1517 1515 1513 1512 1511 1510 1509 1508 1506 1504 1503 1501 1500
1544 1544 1544 1544 1543 1543 1543 1542 1541 1540 1540 1540 1539 1539 1538 1537 1537 1536 1535 1533 1532 1530 1528 1527 1525 1523 1521 1519 1518 1516 1514 1512 1510 1509 1508 1507 1506 1504 1502 1500 1498 1497
1545 1544 1544 1544 1544 1544 1543 1542 1541 1541 1540 1540 1539 1539 1538 1537 1536 1535 1534 1533 1531 1529 1528 1526 1524 1522 1520 1519 1517 1515 1513 1511 1509 1508 1506 1505 1504 1502 1500 1498 1496 1494
1545 1545 1545 1545 1545 1544 1543 1542 1542 1541 1541 1540 1540 1539 1538 1537 1536 1535 1533 1532 1530 1529 1527 1525 1523 1521 1519 1518 1516 1514 1512 1510 1508 1506 1504 1503 1501 1500 1498 1496 1494 1492
1546 1546 1546 1546 1545 1544 1544 1543 1542 1542 1541 1541 1540 1539 1538 1537 1536 1535 1533 1532 1530 1528 1527 1525 1523 1521 1519 1517 1515 1513 1511 1509 1507 1505 1503 1501 1499 1497 1496 1494 1492 1490
1548 1547 1547 1546 1546 1545 1544 1544 1543 1543 1542 1541 1540 1540 1539 1538 1537 1535 1534 1532 1530 1529 1527 1525 1523 1521 1519 1516 1514 1512 1510 1508 1506 1504 1502 1500 1498 1496 1494 1492 1490 1488
1549 1548 1548 1547 1546 1546 1545 1544 1544 1544 1543 1542 1541 1540 1540 1538 1537 1536 1534 1532 1531 1528 1526 1524 1522 1520 1518 1516 1514 1511 1509 1507 1505 1503 1501 1499 1497 1494 1492 1490 1488 1486
1550 1549 1548 1547 1547 1546 1546 1545 1545 1544 1544 1543 1542 1541 1540 1539 1538 1536 1534 1532 1530 1528 1526 1524 1522 1520 1518 1516 1514 1512 1509 1507 1505 1503 1501 1499 1496 1494 1491 1489 1487 1485
1550 1549 1548 1548 1548 1548 1547 1546 1546 1545 1544 1544 1543 1542 1541 1539 1538 1536 1534 1532 1530 1529 1527 1525 1523 1521 1518 1516 1513 1511 1509 1508 1506 1503 1501 1498 1496 1493 1491 1488 1486 1484
1550 1549 1550 1549 1549 1549 1548 1548 1547 1546 1545 1544 1543 1542 1541 1540 1538 1536 1535 1533 1531 1529 1527 1525 1523 1521 1518 1516 1513 1511 1509 1507 1505 1503 1501 1498 1495 1493 1490 1488 1485 1483
1551 1551 1551 1551 1550 1550 1549 1549 1548 1547 1546 1545 1544 1543 1541 1540 1539 1537 1536 1534 1532 1530 1528 1526 1524 1521 1518 1515 1514 1512 1510 1508 1505 1502 1500 1497 1495 1492 1489 1487 1485 1483
1553 1553 1552 1552 1551 1551 1550 1550 1549 1548 1547 1546 1545 1543 1542 1541 1540 1538 1537 1535 1533 1531 1529 1527 1524 1521 1519 1517 1514 1512 1510 1508 1505 1502 1499 1496 1493 1491 1488 1486 1483 1481
1554 1554 1553 1553 1553 1552 1552 1551 1551 1550 1548 1547 1546 1545 1543 1542 1541 1539 1537 1535 1534 1532 1530 1527 1525 1523 1521 1519 1516 1514 1511 1508 1505 1502 1499 1495 1492 1489 1486 1484 1482 1479
1555 1555 1555 1554 1554 1554 1553 1553 1552 1551 1550 1548 1547 1546 1544 1543 1541 1539 1538 1536 1534 1532 1530 1528 1526 1524 1522 1520 1518 1515 1512 1508 1505 1502 1499 1495 1492 1488 1485 1482 1479 1477
1556 1556 1556 1556 1556 1555 1555 1554 1553 1552 1551 1550 1548 1546 1545 1543 1542 1540 1538 1536 1535 1533 1531 1529 1527 1525 1523 1521 1518 1516 1513 1510 1506 1503 1500 1496 1492 1489 1485 1481 1478 1475
1558 1558 1558 1558 1557 1557 1556 1555 1554 1553 1552 1550 1549 1547 1546 1544 1542 1540 1539 1537 1535 1533 1531 1529 1527 1525 1523 1521 1519 1516 1513 1511 1507 1504 1501 1497 1493 1489 1485 1481 1477 1474
1560 1560 1560 1559 1559 1558 1557 1556 1555 1553 1552 1551 1549 1548 1546 1544 1543 1541 1539 1538 1536 1534 1532 1530 1528 1526 1523 1521 1519 1516 1514 1511 1507 1504 1501 1498 1494 1490 1486 1482 1478 1474
1562 1561 1561 1560 1560 1559 1558 1557 1556 1555 1553 1552 1550 1548 1546 1545 1543 1542 1540 1538 1537 1535 1533 1530 1528 1526 1524 1521 1519 1516 1513 1510 1507 1504 1501 1498 1494 1491 1487 1483 1479 1474
1563 1563 1562 1562 1561 1560 1559 1558 1557 1556 1555 1553 1551 1550 1548 1546 1544 1543 1541 1539 1537 1535 1533 1531 1529 1526 1524 1521 1519 1516 1513 1509 1506 1503 1500 1497 1494 1490 1487 1483 1479 1475
1564 1564 1563 1563 1562 1561 1561 1560 1559 1557 1556 1554 1553 1551 1549 1547 1545 1544 1542 1540 1538 1536 1534 1531 1529 1527 1524 1522 1519 1516 1512 1509 1506 1503 1500 1496 1493 1490 1486 1483 1480 1476
1565 1565 1564 1564 1564 1563 1562 1561 1560 1558 1557 1555 1553 1552 1550 1548 1547 1545 1543 1541 1539 1537 1534 1532 1530 1527 1525 1522 1519 1516 1513 1510 1507 1503 1500 1496 1492 1489 1486 1483 1480 1476
1566 1565 1565 1565 1565 1564 1563 1562 1561 1559 1558 1556 1555 1553 1552 1550 1549 1547 1544 1542 1540 1538 1536 1533 1531 1528 1525 1523 1520 1517 1514 1511 1508 1504 1500 1496 1492 1489 1486 1483 1480 1476
1567 1567 1566 1566 1566 1565 1564 1563 1562 1560 1559 1558 1556 1555 1554 1552 1550 1548 1545 1543 1541 1539 1536 1534 1531 1529 1526 1523 1521 1518 1515 1513 1509 1505 1501 1498 1494 1490 1486 1483 1479 1476